This is the latest recevied weather packets stored in our database for station/object KD8DLP-13. If no packets are shown the sender has not sent any weather packets the latest 10 day(s).
| Time | Temp. | Humidity | Pressure | Rain* | Wind** | Luminosity | Snow |
|---|---|---|---|---|---|---|---|
| 1777915571 | 23.89° C | 30% | 1001.7 hPa | 0 mm | - | 786 W/m² | - |
| 1777915268 | 23.33° C | 32% | 1001.6 hPa | 0 mm | - | 748 W/m² | - |
| 1777914964 | 22.78° C | 32% | 1001.6 hPa | 0 mm | - | 653 W/m² | - |
| 1777914662 | 22.78° C | 33% | 1001.6 hPa | 0 mm | - | 801 W/m² | - |
| 1777914357 | 23.33° C | 33% | 1001.9 hPa | 0 mm | - | 769 W/m² | - |
| 1777914055 | 23.89° C | 32% | 1001.8 hPa | 0 mm | - | 678 W/m² | - |
| 1777913751 | 24.44° C | 33% | 1002 hPa | 0 mm | - | 756 W/m² | - |
| 1777913448 | 23.89° C | 34% | 1002.1 hPa | 0 mm | - | 738 W/m² | - |
| 1777913144 | 23.33° C | 34% | 1001.8 hPa | 0 mm | - | 756 W/m² | - |
| 1777912841 | 23.33° C | 35% | 1001.9 hPa | 0 mm | - | 754 W/m² | - |
| 1777912537 | 22.78° C | 36% | 1002.1 hPa | 0 mm | - | 726 W/m² | - |
| 1777912234 | 23.33° C | 35% | 1002 hPa | 0 mm | - | 745 W/m² | - |
| 1777911930 | 22.78° C | 35% | 1002 hPa | 0 mm | - | 722 W/m² | - |
| 1777911626 | 23.33° C | 37% | 1002.2 hPa | 0 mm | - | 731 W/m² | - |
| 1777911322 | 22.78° C | 37% | 1002.3 hPa | 0 mm | - | 723 W/m² | - |
| 1777911021 | 22.22° C | 39% | 1002.6 hPa | 0 mm | - | 719 W/m² | - |
| 1777910718 | 22.22° C | 39% | 1002.5 hPa | 0 mm | - | 714 W/m² | - |
| 1777910414 | 21.67° C | 40% | 1002.6 hPa | 0 mm | - | 706 W/m² | - |
| 1777910110 | 21.67° C | 40% | 1002.7 hPa | 0 mm | - | 700 W/m² | - |
| 1777909809 | 21.67° C | 40% | 1002.7 hPa | 0 mm | - | 689 W/m² | - |
| 1777909504 | 21.67° C | 41% | 1002.8 hPa | 0 mm | - | 686 W/m² | - |
| 1777909202 | 21.11° C | 42% | 1002.9 hPa | 0 mm | - | 677 W/m² | - |
| 1777908900 | 20.56° C | 43% | 1002.6 hPa | 0 mm | - | 671 W/m² | - |
| 1777908597 | 20.56° C | 46% | 1002.8 hPa | 0 mm | - | 662 W/m² | - |
| 1777908294 | 21.11° C | 45% | 1002.9 hPa | 0 mm | - | 651 W/m² | - |
* Rain latest hour (hover to see other rain measurements)
** Current wind speed in m/s (hover to see current wind gust speed)